When you browse on this site, cookies collect data to enhance your experience and personalize the content and advertising you see.
Visit our Privacy Policy to learn more. By continuing to use the site, you agree to this use of cookies and data.
EN

Hourly Weather Krasnaya Gorka

Today, 20 September, Sunday

Time Temperature Precipitation Wind Pressure Humidity
00:00 +13°C° 0 mm 2 mps 760 mmHg 51%
01:00 +13°C° 0 mm 2 mps 760 mmHg 52%
02:00 +12°C° 0 mm 2 mps 760 mmHg 54%
03:00 +12°C° 0 mm 2 mps 760 mmHg 57%
04:00 +12°C° 0 mm 2 mps 760 mmHg 59%
05:00 +10°C° 0 mm 2 mps 760 mmHg 60%
06:00 +10°C° 0 mm 2 mps 760 mmHg 62%
07:00 +12°C° 0 mm 3 mps 760 mmHg 55%
08:00 +16°C° 0 mm 3 mps 760 mmHg 49%
09:00 +18°C° 0 mm 4 mps 760 mmHg 42%
10:00 +20°C° 0 mm 4 mps 760 mmHg 36%
11:00 +22°C° 0 mm 5 mps 760 mmHg 30%
12:00 +23°C° 0 mm 5 mps 760 mmHg 24%
13:00 +25°C° 0 mm 5 mps 760 mmHg 24%
14:00 +25°C° 0 mm 5 mps 760 mmHg 24%
15:00 +24°C° 0 mm 6 mps 759 mmHg 24%
16:00 +23°C° 0 mm 5 mps 760 mmHg 25%
17:00 +22°C° 0 mm 4 mps 760 mmHg 27%
18:00 +20°C° 0 mm 4 mps 760 mmHg 28%
19:00 +19°C° 0 mm 4 mps 761 mmHg 33%
20:00 +17°C° 0 mm 3 mps 761 mmHg 38%
21:00 +14°C° 0 mm 3 mps 762 mmHg 42%
22:00 +13°C° 0 mm 3 mps 762 mmHg 46%
23:00 +12°C° 0 mm 4 mps 762 mmHg 50%

Tomorrow, 21 September, Monday

Time Temperature Precipitation Wind Pressure Humidity
00:00 +12°C° 0 mm 4 mps 763 mmHg 53%
01:00 +11°C° 0 mm 3 mps 763 mmHg 55%
02:00 +10°C° 0 mm 3 mps 763 mmHg 56%
03:00 +10°C° 0 mm 3 mps 764 mmHg 58%
04:00 +9°C° 0 mm 3 mps 764 mmHg 58%
05:00 +9°C° 0 mm 3 mps 764 mmHg 59%
06:00 +8°C° 0 mm 2 mps 764 mmHg 59%
07:00 +10°C° 0 mm 3 mps 764 mmHg 53%
08:00 +12°C° 0 mm 3 mps 764 mmHg 46%
09:00 +16°C° 0 mm 3 mps 764 mmHg 39%
10:00 +17°C° 0 mm 3 mps 764 mmHg 34%
11:00 +19°C° 0 mm 3 mps 764 mmHg 30%
12:00 +20°C° 0 mm 3 mps 764 mmHg 25%
13:00 +21°C° 0 mm 2 mps 763 mmHg 23%
14:00 +23°C° 0 mm 2 mps 763 mmHg 20%
15:00 +24°C° 0 mm 2 mps 763 mmHg 18%
16:00 +23°C° 0 mm 2 mps 762 mmHg 19%
17:00 +21°C° 0 mm 2 mps 762 mmHg 21%
18:00 +21°C° 0 mm 1 mps 762 mmHg 22%
19:00 +18°C° 0 mm 2 mps 762 mmHg 24%
20:00 +16°C° 0 mm 2 mps 763 mmHg 26%
21:00 +14°C° 0 mm 3 mps 763 mmHg 29%
22:00 +13°C° 0 mm 3 mps 763 mmHg 30%
23:00 +13°C° 0 mm 3 mps 763 mmHg 31%

Day after tomorrow, 22 September, Tuesday

Time Temperature Precipitation Wind Pressure Humidity
00:00 +13°C° 0 mm 2 mps 763 mmHg 32%
01:00 +13°C° 0 mm 2 mps 763 mmHg 32%
02:00 +12°C° 0 mm 2 mps 763 mmHg 33%
03:00 +11°C° 0 mm 3 mps 763 mmHg 34%
04:00 +10°C° 0 mm 2 mps 763 mmHg 35%
05:00 +10°C° 0 mm 2 mps 763 mmHg 36%
06:00 +10°C° 0 mm 2 mps 763 mmHg 37%
07:00 +13°C° 0 mm 2 mps 763 mmHg 33%
08:00 +16°C° 0 mm 3 mps 763 mmHg 28%
09:00 +18°C° 0 mm 3 mps 764 mmHg 24%
10:00 +20°C° 0 mm 3 mps 763 mmHg 22%
11:00 +22°C° 0 mm 3 mps 763 mmHg 19%
12:00 +24°C° 0 mm 3 mps 763 mmHg 16%
13:00 +25°C° 0 mm 3 mps 763 mmHg 15%
14:00 +26°C° 0 mm 2 mps 762 mmHg 14%
15:00 +27°C° 0 mm 2 mps 762 mmHg 13%
16:00 +25°C° 0 mm 2 mps 762 mmHg 15%
17:00 +24°C° 0 mm 2 mps 762 mmHg 16%
18:00 +23°C° 0 mm 2 mps 762 mmHg 18%
19:00 +20°C° 0 mm 2 mps 762 mmHg 19%
20:00 +19°C° 0 mm 2 mps 762 mmHg 21%
21:00 +17°C° 0 mm 2 mps 762 mmHg 23%
22:00 +16°C° 0 mm 2 mps 762 mmHg 25%
23:00 +16°C° 0 mm 2 mps 762 mmHg 26%

23 September, Wednesday

Time Temperature Precipitation Wind Pressure Humidity
00:00 +14°C° 0 mm 3 mps 762 mmHg 28%
01:00 +14°C° 0 mm 3 mps 762 mmHg 29%
02:00 +13°C° 0 mm 3 mps 761 mmHg 31%
03:00 +14°C° 0 mm 2 mps 761 mmHg 32%
04:00 +12°C° 0 mm 3 mps 761 mmHg 33%
05:00 +12°C° 0 mm 3 mps 761 mmHg 33%
06:00 +12°C° 0 mm 3 mps 761 mmHg 34%
07:00 +14°C° 0 mm 3 mps 761 mmHg 30%
08:00 +18°C° 0 mm 3 mps 762 mmHg 26%
09:00 +20°C° 0 mm 4 mps 762 mmHg 22%
10:00 +22°C° 0 mm 4 mps 761 mmHg 20%
11:00 +25°C° 0 mm 4 mps 761 mmHg 18%
12:00 +27°C° 0 mm 4 mps 761 mmHg 16%
13:00 +28°C° 0 mm 4 mps 760 mmHg 15%
14:00 +29°C° 0 mm 4 mps 760 mmHg 15%
15:00 +29°C° 0 mm 4 mps 759 mmHg 14%
16:00 +28°C° 0 mm 4 mps 759 mmHg 15%
17:00 +26°C° 0 mm 3 mps 759 mmHg 17%
18:00 +25°C° 0 mm 3 mps 758 mmHg 19%
19:00 +22°C° 0 mm 3 mps 758 mmHg 20%
20:00 +21°C° 0 mm 3 mps 759 mmHg 21%
21:00 +19°C° 0 mm 4 mps 759 mmHg 23%
22:00 +18°C° 0 mm 4 mps 759 mmHg 26%
23:00 +18°C° 0 mm 4 mps 759 mmHg 28%

24 September, Thursday

Time Temperature Precipitation Wind Pressure Humidity
00:00 +17°C° 0 mm 4 mps 759 mmHg 31%
01:00 +15°C° 0 mm 4 mps 759 mmHg 33%
02:00 +15°C° 0 mm 4 mps 758 mmHg 34%
03:00 +14°C° 0 mm 4 mps 758 mmHg 36%
04:00 +14°C° 0 mm 4 mps 758 mmHg 39%
05:00 +14°C° 0 mm 4 mps 759 mmHg 43%
06:00 +14°C° 0 mm 3 mps 759 mmHg 46%
07:00 +17°C° 0 mm 4 mps 759 mmHg 44%
08:00 +19°C° 0 mm 4 mps 759 mmHg 41%
09:00 +21°C° 0 mm 5 mps 759 mmHg 39%
10:00 +23°C° 0 mm 5 mps 758 mmHg 37%
11:00 +26°C° 0 mm 5 mps 758 mmHg 35%
12:00 +28°C° 0 mm 6 mps 758 mmHg 34%
13:00 +28°C° 0 mm 5 mps 758 mmHg 32%
14:00 +29°C° 0 mm 5 mps 758 mmHg 31%
15:00 +30°C° 0 mm 5 mps 757 mmHg 29%
16:00 +29°C° 0 mm 5 mps 757 mmHg 30%
17:00 +28°C° 0 mm 4 mps 757 mmHg 30%
18:00 +27°C° 0 mm 4 mps 757 mmHg 31%
19:00 +25°C° 0 mm 4 mps 757 mmHg 34%
20:00 +23°C° 0 mm 4 mps 757 mmHg 37%
21:00 +21°C° 0 mm 4 mps 757 mmHg 40%
22:00 +21°C° 0 mm 4 mps 757 mmHg 40%
23:00 +21°C° 0 mm 4 mps 757 mmHg 40%

25 September, Friday

Time Temperature Precipitation Wind Pressure Humidity
00:00 +20°C° 0 mm 5 mps 757 mmHg 39%
01:00 +20°C° 0 mm 4 mps 757 mmHg 40%
02:00 +20°C° 0 mm 4 mps 757 mmHg 41%
03:00 +19°C° 0 mm 4 mps 757 mmHg 42%
04:00 +19°C° 0 mm 5 mps 757 mmHg 44%
05:00 +17°C° 0 mm 5 mps 757 mmHg 46%
06:00 +17°C° 0 mm 5 mps 757 mmHg 48%
07:00 +19°C° 0 mm 5 mps 757 mmHg 47%
08:00 +20°C° 0 mm 6 mps 757 mmHg 45%
09:00 +21°C° 0 mm 7 mps 757 mmHg 44%
10:00 +23°C° 0 mm 7 mps 757 mmHg 37%
11:00 +26°C° 0 mm 7 mps 757 mmHg 30%
12:00 +28°C° 0 mm 8 mps 757 mmHg 23%
13:00 +29°C° 0 mm 7 mps 757 mmHg 21%
14:00 +30°C° 0 mm 7 mps 756 mmHg 20%
15:00 +32°C° 0 mm 7 mps 756 mmHg 18%
16:00 +29°C° 0 mm 6 mps 756 mmHg 19%
17:00 +28°C° 0 mm 5 mps 756 mmHg 21%
18:00 +27°C° 0 mm 4 mps 756 mmHg 23%
19:00 +26°C° 0 mm 4 mps 756 mmHg 25%
20:00 +25°C° 0 mm 5 mps 756 mmHg 27%
21:00 +23°C° 0 mm 5 mps 756 mmHg 29%
22:00 +22°C° 0 mm 5 mps 756 mmHg 30%
23:00 +22°C° 0 mm 5 mps 755 mmHg 31%
Show more